Location: Newark
(13.8117°N, 3.6025°W)
Time: 07:45:04
(UTC+00:00)

Transit 2A Rocket - All Passes

Search period start: 24 August 2019 00:00
Search period end: 03 September 2019 00:00
Orbit: 590 x 913 km, 66.7° (Epoch: 24 August)

Date Brightness Start Highest point End Pass type
(mag) Time Alt. Az. Time Alt. Az. Time Alt. Az.
24 Aug - 05:28:01 10° NW 05:32:06 45° WSW 05:36:12 10° S visible
24 Aug - 16:25:34 10° SE 16:27:37 12° ESE 16:29:37 10° E daylight
24 Aug - 18:03:56 10° SSW 18:09:54 59° WNW 18:15:34 10° N daylight
25 Aug - 04:45:24 10° NNW 04:49:40 72° ENE 04:53:57 10° SSE visible
25 Aug - 17:21:22 10° SSW 17:27:25 72° ESE 17:33:10 10° NNE daylight
26 Aug - 04:03:26 10° N 04:07:11 29° ENE 04:10:57 10° SE visible
26 Aug - 05:48:21 10° W 05:49:21 11° WSW 05:50:21 10° WSW daylight
26 Aug - 16:39:27 10° S 16:44:58 37° ESE 16:50:15 10° NE daylight
26 Aug - 18:23:12 10° WSW 18:27:26 20° WNW 18:31:33 10° NNW daylight
27 Aug - 03:22:34 10° NE 03:24:37 13° ENE 03:26:40 10° E visible
27 Aug - 05:03:27 10° NW 05:06:58 25° WSW 05:10:32 10° SSW visible
27 Aug - 15:58:25 10° SSE 16:02:32 19° ESE 16:06:32 10° ENE daylight
27 Aug - 17:39:21 10° SW 17:44:54 38° WNW 17:50:11 10° N daylight
28 Aug - 04:20:21 10° NNW 04:24:34 62° WSW 04:28:49 10° S visible
28 Aug - 16:56:21 10° SSW 17:02:24 74° WNW 17:08:07 10° NNE daylight
29 Aug - 03:37:57 10° N 03:42:07 52° ENE 03:46:19 10° SE night (unlit)
29 Aug - 16:14:01 10° S 16:19:56 57° ESE 16:25:34 10° NNE daylight
29 Aug - 18:00:05 10° W 18:02:30 13° WNW 18:04:53 10° NW daylight
30 Aug - 02:56:15 10° NNE 02:59:37 22° ENE 03:02:59 10° ESE night (unlit)
30 Aug - 04:39:27 10° WNW 04:41:50 15° WSW 04:44:15 10° SW night (unlit)
30 Aug - 15:32:21 10° SSE 15:37:29 29° ESE 15:42:26 10° NE daylight
30 Aug - 17:15:07 10° WSW 17:19:54 25° WNW 17:24:30 10° NNW daylight
31 Aug - 03:55:35 10° NW 03:59:26 34° WSW 04:03:22 10° S night (unlit)
31 Aug - 14:51:50 10° SE 14:55:03 15° ESE 14:58:13 10° ENE daylight
31 Aug - 16:31:38 10° SW 16:37:23 48° WNW 16:42:51 10° N daylight
01 Sep - 03:12:45 10° NNW 03:17:02 85° WSW 03:21:21 10° SSE night (unlit)
01 Sep - 15:48:51 10° SSW 15:54:54 88° ESE 16:00:37 10° NNE daylight
02 Sep - 02:30:34 10° N 02:34:34 38° ENE 02:38:35 10° SE night (unlit)
02 Sep - 15:06:44 10° S 15:12:27 45° ESE 15:17:53 10° NE daylight
02 Sep - 16:51:28 10° WSW 16:54:57 16° WNW 16:58:20 10° NNW daylight
